FW9219 Weather Reports


time (UTC)temp
C
wind
direction
speed
KPH
gust
KPH
rain 1hr
cm
rain 24hr
cm
rain mn
cm
humidity
%
barometer
mb
20260507143327 26 248 9.7 17.7 0.00 0.00 0.00 48 1004.3
20260507142825 26 248 6.4 17.7 0.00 0.00 0.00 50 1004.2
20260507142307 26 225 11.3 17.7 0.00 0.00 0.00 50 1004.0
20260507141756 25 248 8.0 12.9 0.00 0.00 0.00 51 1003.9
20260507141246 24 135 4.8 11.3 0.00 0.00 0.00 54 1003.7
20260507140226 25 180 4.8 11.3 0.00 0.00 0.00 49 1003.6
20260507135716 25 180 6.4 9.7 0.00 0.00 0.00 49 1003.5
20260507134146 23 203 4.8 17.7 0.00 0.00 0.00 53 1003.6
20260507133635 22 180 0.0 17.7 0.00 0.00 0.00 57 1003.5
20260507132615 22 158 6.4 17.7 0.00 0.00 0.00 53 1003.7
20260507132105 23 270 4.8 6.4 0.00 0.00 0.00 53 1003.1
20260507131555 22 180 3.2 11.3 0.00 0.00 0.00 55 1003.5
20260507130539 20 113 0.0 6.4 0.00 0.00 0.00 60 1003.5
20260507130025 20 113 0.0 6.4 0.00 0.00 0.00 63 1003.8
20260507125514 18 135 3.2 6.4 0.00 0.00 0.00 67 1003.8
20260507125004 18 113 6.4 6.4 0.00 0.00 0.00 66 1003.8
20260507124454 17 90 3.2 9.7 0.00 0.00 0.00 75 1003.7
20260507123944 16 225 4.8 9.7 0.00 0.00 0.00 77 1003.7
20260507123434 16 23 3.2 9.7 0.00 0.00 0.00 78 1003.7
20260507122924 15 248 6.4 9.7 0.00 0.00 0.00 78 1003.3
20260507122413 13 270 6.4 9.7 0.00 0.00 0.00 87 1003.1
20260507121904 12 158 6.4 9.7 0.00 0.00 0.00 92 1003.8
20260507121353 12 225 0.0 9.7 0.00 0.00 0.00 94 1003.6
20260507120333 11 270 3.2 14.5 0.00 0.00 0.00 95 1003.4
20260507115823 11 45 6.4 9.7 0.00 0.00 0.00 95 1003.6
20260507115313 11 135 0.0 11.3 0.00 0.00 0.00 95 1003.0
20260507114253 10 293 3.2 11.3 0.00 0.00 0.00 95 1002.9
20260507113743 10 45 6.4 12.9 0.00 0.00 0.00 95 1003.4
20260507112212 9 180 0.0 9.7 0.00 0.00 0.00 96 1002.9
20260507111153 8 90 0.0 6.4 0.00 0.00 0.00 95 1003.1
20260507110642 9 45 1.6 6.4 0.00 0.00 0.00 96 1002.9
20260507110132 9 113 0.0 0.0 0.00 0.00 0.00 96 1002.8
20260507105625 8 68 0.0 0.0 0.00 0.00 0.00 95 1003.3
20260507104607 9 270 0.0 11.3 0.00 0.00 0.00 95 1002.9
20260507104052 9 315 0.0 11.3 0.00 0.00 0.00 95 1002.7
20260507103031 10 338 0.0 12.9 0.00 0.00 0.00 95 1002.9
20260507102521 10 180 0.0 11.3 0.00 0.00 0.00 95 1003.0
20260507102011 11 158 8.0 11.3 0.00 0.00 0.00 95 1002.8
20260507101501 10 293 1.6 9.7 0.00 0.00 0.00 95 1003.5
20260507100441 11 338 0.0 9.7 0.00 0.00 0.00 95 1003.1
20260507095931 11 248 0.0 9.7 0.00 0.00 0.00 95 1003.3
20260507094910 11 90 4.8 9.7 0.00 0.00 0.00 95 1003.4
20260507094409 11 135 6.4 11.3 0.00 0.00 0.00 95 1003.8
20260507093850 11 68 6.4 11.3 0.00 0.00 0.00 95 1003.6
20260507093340 12 135 3.2 9.7 0.00 0.00 0.00 95 1003.7
20260507092830 12 113 1.6 9.7 0.00 0.00 0.00 95 1003.6
20260507092320 12 270 0.0 0.0 0.00 0.00 0.00 95 1003.5
20260507091809 11 90 0.0 3.2 0.00 0.00 0.00 95 1004.2
20260507091300 11 315 0.0 9.7 0.00 0.00 0.00 95 1004.0
20260507090749 11 338 0.0 9.7 0.00 0.00 0.00 95 1004.0
20260507090239 11 68 4.8 9.7 0.00 0.00 0.00 95 1004.0
20260507085729 11 270 1.6 12.9 0.00 0.00 0.00 95 1003.7
20260507085219 11 90 0.0 12.9 0.00 0.00 0.00 95 1004.4
20260507084709 11 338 0.0 9.7 0.00 0.00 0.00 95 1003.8
20260507084159 11 270 0.0 14.5 0.00 0.00 0.00 95 1003.8
20260507083649 11 68 9.7 14.5 0.00 0.00 0.00 95 1004.5
20260507082628 12 0 0.0 9.7 0.00 0.00 0.00 95 1004.3
20260507081608 12 315 9.7 11.3 0.00 0.00 0.00 95 1004.2
20260507081059 12 315 4.8 6.4 0.00 0.00 0.00 95 1004.5
20260507080548 11 293 6.4 6.4 0.00 0.00 0.00 95 1003.9
20260507080038 11 90 6.4 6.4 0.00 0.00 0.00 95 1004.6
20260507075528 11 23 0.0 9.7 0.00 0.00 0.00 94 1004.6
20260507075017 10 293 3.2 9.7 0.00 0.00 0.00 94 1004.3
20260507074513 11 338 0.0 6.4 0.00 0.00 0.00 94 1004.5
20260507073958 10 45 0.0 11.3 0.00 0.00 0.00 94 1004.8
20260507073447 10 68 6.4 12.9 0.00 0.00 0.00 94 1005.1
20260507072427 10 293 1.6 11.3 0.00 0.00 0.00 94 1004.2
20260507071917 10 23 6.4 11.3 0.00 0.00 0.00 94 1004.9
20260507071407 10 338 0.0 0.0 0.00 0.00 0.00 94 1004.5
20260507070857 11 45 0.0 0.0 0.00 0.00 0.00 94 1004.5
20260507070348 11 90 0.0 0.0 0.00 0.00 0.00 94 1004.9
20260507070150 10 315 0.0 0.0 0.00 0.00 0.00 94 1004.7
20260507065541 10 338 0.0 0.0 0.00 0.00 0.00 94 1004.9
20260507065031 11 158 0.0 0.0 0.00 0.00 0.00 94 1004.8
20260507064521 11 338 0.0 0.0 0.00 0.00 0.00 94 1005.2
20260507064011 11 90 0.0 0.0 0.00 0.00 0.00 94 1005.4
20260507063501 11 248 0.0 0.0 0.00 0.00 0.00 94 1005.5
20260507062951 11 45 0.0 6.4 0.00 0.00 0.00 94 1005.4
20260507061931 11 23 0.0 0.0 0.00 0.00 0.00 94 1005.8
20260507061420 12 68 0.0 0.0 0.00 0.00 0.00 94 1005.7
20260507060910 11 45 0.0 0.0 0.00 0.00 0.00 94 1005.8
20260507060400 12 135 0.0 0.0 0.00 0.00 0.00 93 1005.7
20260507055850 11 90 0.0 0.0 0.00 0.00 0.00 94 1006.2
20260507055340 11 90 0.0 0.0 0.00 0.00 0.00 94 1006.2
20260507054830 11 90 0.0 0.0 0.00 0.00 0.00 94 1006.2
20260507054320 11 23 0.0 0.0 0.00 0.00 0.00 93 1006.3
20260507053810 11 68 0.0 0.0 0.00 0.00 0.00 94 1006.5
20260507053300 11 0 0.0 0.0 0.00 0.00 0.00 94 1006.8
20260507052750 12 135 0.0 0.0 0.00 0.00 0.00 94 1006.8
20260507052239 11 90 0.0 3.2 0.00 0.00 0.00 94 1006.8
20260507051735 11 45 0.0 3.2 0.00 0.00 0.00 94 1006.8
20260507051219 12 225 0.0 0.0 0.00 0.00 0.00 93 1006.6
20260507050159 12 68 0.0 9.7 0.00 0.00 0.00 94 1006.8
20260507045648 11 68 1.6 9.7 0.00 0.00 0.00 94 1007.1
20260507045138 11 270 0.0 0.0 0.00 0.00 0.00 93 1006.6
20260507044629 11 23 0.0 0.0 0.00 0.00 0.00 93 1007.1
20260507044119 12 23 0.0 0.0 0.00 0.00 0.00 93 1007.1
20260507043608 11 23 0.0 0.0 0.00 0.00 0.00 93 1006.9
20260507042548 12 23 0.0 0.0 0.00 0.00 0.00 93 1007.0
20260507042038 12 90 0.0 0.0 0.00 0.00 0.00 93 1007.4
20260507041528 12 45 0.0 0.0 0.00 0.00 0.00 93 1007.1
20260507041018 12 45 0.0 0.0 0.00 0.00 0.00 93 1007.3
20260507040508 12 45 0.0 0.0 0.00 0.00 0.00 93 1007.2
20260507035957 12 45 0.0 0.0 0.00 0.00 0.00 93 1007.2
20260507035447 12 45 0.0 0.0 0.00 0.00 0.00 92 1007.5
20260507034428 12 68 0.0 0.0 0.00 0.00 0.00 92 1007.4
20260507033407 13 90 0.0 0.0 0.00 0.00 0.00 92 1007.8
20260507032857 13 135 0.0 0.0 0.00 0.00 0.00 92 1007.8
20260507032347 13 135 0.0 0.0 0.00 0.00 0.00 92 1007.7
20260507031837 13 135 0.0 0.0 0.00 0.00 0.00 91 1007.8
20260507031326 13 135 0.0 0.0 0.00 0.00 0.00 92 1008.0
20260507030816 13 90 0.0 0.0 0.00 0.00 0.00 92 1008.2
20260507030306 13 113 0.0 0.0 0.00 0.00 0.00 92 1007.8
20260507025756 13 113 0.0 0.0 0.00 0.00 0.00 92 1007.8
20260507025246 14 90 0.0 0.0 0.00 0.00 0.00 92 1008.0
20260507023716 14 90 0.0 0.0 0.00 0.00 0.00 92 1008.0
20260507023206 14 90 0.0 3.2 0.00 0.00 0.00 92 1008.1
20260507022656 15 113 0.0 6.4 0.00 0.00 0.00 92 1008.3
20260507022145 15 113 0.0 6.4 0.00 0.00 0.00 92 1008.2
20260507021641 15 135 0.0 3.2 0.00 0.00 0.00 92 1008.2
20260507021125 15 158 0.0 0.0 0.00 0.00 0.00 92 1008.2
20260507020105 15 113 0.0 0.0 0.00 0.00 0.00 92 1008.6
20260507015554 15 135 0.0 0.0 0.00 0.00 0.00 92 1008.2
20260507015045 15 113 0.0 0.0 0.00 0.00 0.00 92 1008.2
20260507014534 15 113 0.0 0.0 0.00 0.00 0.00 92 1008.3
20260507014024 15 113 0.0 0.0 0.00 0.00 0.00 92 1008.3
20260507013520 15 90 0.0 3.2 0.00 0.00 0.00 92 1008.4
20260507012454 15 113 0.0 3.2 0.00 0.00 0.00 92 1008.3
20260507011944 15 113 0.0 0.0 0.00 0.00 0.00 92 1008.8
20260507011434 16 113 0.0 0.0 0.00 0.00 0.00 92 1008.3
20260507010414 16 113 0.0 0.0 0.00 0.00 0.00 92 1008.3
20260507005903 16 113 0.0 0.0 0.00 0.00 0.00 92 1008.6
20260507005353 16 113 0.0 0.0 0.00 0.00 0.00 92 1008.4
20260507004843 17 135 0.0 0.0 0.00 0.00 0.00 92 1008.7
20260507004333 17 135 0.0 0.0 0.00 0.00 0.00 92 1008.3
20260507003823 17 135 0.0 0.0 0.00 0.00 0.00 92 1008.4
20260507002803 17 135 0.0 0.0 0.00 0.00 0.00 91 1008.4
20260507002252 17 135 0.0 0.0 0.00 0.00 0.00 91 1008.6
20260507001742 17 135 0.0 3.2 0.00 0.00 0.00 91 1008.3
20260507001232 17 180 0.0 3.2 0.00 0.00 0.00 91 1008.1
20260507000722 17 158 0.0 0.0 0.00 0.00 0.00 91 1008.0
20260507000212 17 180 0.0 3.2 0.00 0.00 0.00 91 1008.1
20260506235702 17 158 0.0 3.2 0.00 0.00 0.00 91 1008.3
20260506235152 18 158 0.0 6.4 0.00 0.00 0.00 90 1008.0
20260506234642 18 180 0.0 6.4 0.00 0.00 0.00 90 1007.9
20260506234132 18 158 0.0 3.2 0.00 0.00 0.00 90 1008.1
20260506233621 18 158 0.0 11.3 0.00 0.00 0.00 90 1007.5
20260506233112 18 158 3.2 11.3 0.00 0.00 0.00 89 1008.0
20260506232601 18 180 1.6 9.7 0.00 0.00 0.00 89 1007.9
20260506232056 18 135 0.0 11.3 0.00 0.00 0.00 88 1007.5
20260506231541 18 158 3.2 11.3 0.00 0.00 0.00 88 1007.7
20260506231032 18 203 3.2 6.4 0.00 0.00 0.00 88 1007.9
20260506230521 19 113 1.6 6.4 0.00 0.00 0.00 87 1007.8
20260506230012 19 158 0.0 3.2 0.00 0.00 0.00 86 1007.5
20260506225501 19 180 0.0 3.2 0.00 0.00 0.00 86 1007.9
20260506224955 19 158 0.0 3.2 0.00 0.00 0.00 86 1007.7
20260506223930 19 248 0.0 0.0 0.00 0.00 0.00 85 1007.7
20260506223420 20 248 0.0 3.2 0.00 0.00 0.00 85 1007.7
20260506222910 20 203 0.0 3.2 0.00 0.00 0.00 85 1007.5
20260506221850 20 225 0.0 3.2 0.00 0.00 0.00 85 1007.3
20260506221340 20 225 0.0 6.4 0.00 0.00 0.00 84 1007.2
20260506220830 20 225 3.2 9.7 0.00 0.00 0.00 85 1007.3
20260506220329 20 203 4.8 9.7 0.00 0.00 0.00 84 1007.2
20260506215810 20 248 4.8 12.9 0.00 0.00 0.00 84 1006.9
20260506215306 20 225 3.2 12.9 0.00 0.00 0.00 84 1007.0
20260506214749 21 225 3.2 11.3 0.00 0.00 0.00 83 1006.9
20260506214239 21 225 4.8 14.5 0.00 0.00 0.00 83 1006.8
20260506213218 21 225 4.8 14.5 0.00 0.00 0.00 82 1006.8
20260506212709 21 248 6.4 14.5 0.00 0.00 0.00 81 1006.9
20260506212159 21 248 3.2 14.5 0.00 0.00 0.00 81 1006.8
20260506211139 21 248 4.8 14.5 0.00 0.00 0.00 81 1006.6
20260506210628 22 225 3.2 14.5 0.00 0.00 0.00 81 1006.8
20260506210118 22 248 4.8 14.5 0.00 0.00 0.00 80 1006.5
20260506205058 22 225 3.2 14.5 0.00 0.00 0.00 79 1006.8
20260506204548 22 248 0.0 14.5 0.00 0.00 0.00 79 1006.8
20260506203527 22 248 6.4 12.9 0.00 0.00 0.00 78 1006.3
20260506203018 23 248 3.2 14.5 0.00 0.00 0.00 77 1006.2
20260506202508 23 248 1.6 17.7 0.00 0.00 0.00 77 1006.4
20260506201958 23 203 3.2 17.7 0.00 0.00 0.00 75 1006.3
20260506201447 23 225 8.0 14.5 0.00 0.00 0.00 74 1006.4
20260506200937 24 248 8.0 24.1 0.00 0.00 0.00 73 1006.3
20260506195917 25 225 6.4 22.5 0.00 0.00 0.00 71 1006.3
20260506195406 25 225 8.0 24.1 0.00 0.00 0.00 71 1006.3
20260506194857 25 248 14.5 24.1 0.00 0.00 0.00 70 1006.1
20260506194347 25 225 6.4 14.5 0.00 0.00 0.00 70 1006.1
20260506193836 25 203 3.2 17.7 0.00 0.00 0.00 71 1006.0
20260506193326 25 225 6.4 17.7 0.00 0.00 0.00 71 1006.3
20260506192816 25 248 9.7 17.7 0.00 0.00 0.00 73 1005.8
20260506192306 25 225 8.0 14.5 0.00 0.00 0.00 72 1006.2
20260506191756 25 248 8.0 14.5 0.00 0.00 0.00 72 1006.3
20260506191246 26 225 6.4 12.9 0.00 0.00 0.00 70 1006.2
20260506190736 26 203 6.4 9.7 0.00 0.00 0.00 70 1006.4
20260506190226 25 225 1.6 6.4 0.00 0.00 0.00 71 1006.4
20260506185716 26 248 1.6 3.2 0.00 0.00 0.00 68 1006.5
20260506185206 26 248 0.0 3.2 0.00 0.00 0.00 71 1006.5
20260506184145 25 248 0.0 9.7 0.00 0.00 0.00 70 1006.8
20260506183125 25 248 3.2 6.4 0.00 0.00 0.00 71 1007.1
20260506182615 25 225 0.0 9.7 0.00 0.00 0.00 71 1007.1
20260506181555 25 203 0.0 6.4 0.00 0.00 0.00 67 1007.0
20260506180539 24 293 0.0 0.0 0.00 0.00 0.00 69 1007.2
20260506180025 23 338 0.0 3.2 0.00 0.00 0.00 70 1007.3
20260506175515 24 338 0.0 3.2 0.00 0.00 0.00 69 1007.7
20260506175004 23 338 0.0 6.4 0.00 0.00 0.00 69 1007.5
20260506174454 24 315 0.0 6.4 0.00 0.00 0.00 71 1007.8
20260506173943 23 315 4.8 12.9 0.00 0.00 0.00 71 1007.8
20260506173443 23 338 0.0 12.9 0.00 0.00 0.00 70 1007.9
20260506172924 23 315 6.4 11.3 0.00 0.00 0.00 70 1008.0
20260506171353 22 0 0.0 12.9 0.00 0.00 0.00 71 1008.2
20260506170333 22 293 6.4 11.3 0.00 0.00 0.00 73 1008.3
20260506165823 22 293 6.4 11.3 0.00 0.00 0.00 73 1008.6
20260506164803 22 270 0.0 6.4 0.00 0.00 0.00 72 1008.7
20260506164253 22 293 0.0 3.2 0.00 0.00 0.00 73 1008.7
20260506163743 22 338 1.6 6.4 0.00 0.00 0.00 72 1008.8
20260506163232 22 315 0.0 6.4 0.00 0.00 0.00 72 1009.1
20260506162722 23 293 0.0 0.0 0.00 0.00 0.00 72 1009.0
20260506162212 22 293 0.0 0.0 0.00 0.00 0.00 70 1009.0
20260506161703 22 0 0.0 3.2 0.00 0.00 0.00 72 1009.2
20260506160652 22 315 3.2 11.3 0.00 0.00 0.00 77 1009.5
20260506160132 21 0 1.6 11.3 0.00 0.00 0.00 77 1009.5
20260506155622 20 293 3.2 9.7 0.00 0.00 0.00 78 1009.6
20260506155111 20 315 4.8 11.3 0.00 0.00 0.00 80 1010.0
20260506154051 20 338 4.8 17.7 0.00 0.00 0.00 81 1010.1
20260506153541 19 315 3.2 9.7 0.00 0.00 0.00 82 1010.2
20260506153031 20 315 4.8 9.7 0.00 0.00 0.00 84 1010.5
20260506152521 19 315 4.8 12.9 0.00 0.00 0.00 85 1010.5
20260506152010 18 338 3.2 12.9 0.00 0.00 0.00 85 1010.7
20260506151501 18 315 6.4 14.5 0.00 0.00 0.00 87 1010.9
20260506145930 17 315 6.4 11.3 0.00 0.00 0.00 89 1011.4
20260506145421 17 270 8.0 12.9 0.00 0.00 0.00 90 1011.4
20260506144910 17 293 6.4 12.9 0.00 0.00 0.00 90 1011.5
20260506143850 17 293 9.7 14.5 0.00 0.00 0.00 90 1011.6